Retour au catalogue

STARLINK-37174

ActifCommunicationsSSO
NORAD 68767·PAYLOAD·🇺🇸 United States

Lancé Apr 19, 2026 depuis Vandenberg Space Force Base

Loading…

Prochains Passages (prochaines 24 heures)

TLE

FraisSource: CelesTrak SupGP

Époque: Sep 14, 2026, 23:08 UTC

1 68767C 26086B   26257.96437500  .00030639  00000+0  95120-3 0  2579
2 68767  97.2846 293.4096 0001085  88.9911 229.4670 15.33420599    17

Suivez STARLINK-37174 en temps réel avec AllMySat

Download on the App Store